User: anonymous   Login
Location: Unspecified
(0.0000°N, 0.0000°E)
Time: 01:10:46
(UTC+02:00)
Language:

ARIANE 5 R/B - Orbit

View from above orbital plane
View from above orbital plane
View from above satellite
View from above satellite

Ground track
Ground track

The orbit data is extracted from the following two-line orbital elements,

1 29646U 06054D   16122.07557049  .00003745  00000-0  81669-3 0  9993
2 29646   2.4967 152.8670 7121392 299.3535   8.5078  2.48723450 81380
Epoch (UTC): 01 May 2016 01:48:49
Eccentricity: 0.7121392
inclination: 2.4967°
perigee height: 245 km
apogee height: 33018 km
right ascension of ascending node: 152.8670°
argument of perigee: 299.3535°
revolutions per day: 2.48723450
mean anomaly at epoch: 8.5078°
orbit number at epoch: 8138

The dashed part of the orbit path shows where the satellite is in the earth's shadow,  

DLR